Content
SEND FEEDBACK

Daily
Averages
Monthly
Summary
Mexico

LEONA VICARIO, QUINTANA ROO


Home > North America > Mexico > Quintana Roo
Elevation: 26 feet     Latitude: 20 59N     Longitude: 087 12W

WEATHER
 
SELECT A DAY
Number of Records: 163,931;   Date Range: 1/1/95 - 8/31/14
 
SHARE

PRINT THIS DATA

[ ← Previous Day ]
WEATHER ALMANAC - DECEMBER 8, 2013
[ Next Day → ]
[ °C ]   °F
Weather ElementAverageHighLow
Temperature77.9 °F82.4 °F (8:46 am)69.8 °F (11:45 pm)
Dewpoint70.5 °F71.6 °F (8:46 am)68 °F (1:44 am)
Humidity78.7 %94 % (7:47 pm)66 % (1:41 pm)
Barometer30.03 in30.09 in (9:45 am)29.98 in (2:44 pm)
Wind Speed4.9 mph11.5 mph (11:53 am)
Weather ElementAverage
Visibility7 mi
Wind DirectionENE (65.5 °)

Weather ElementTotal
Precipitation---
Cooling Degree Days11.1 (Base 65)
Growing Degree Days26.1 (Base 50)
Averaged from 22 records on December 8, 2013
WEATHER CONDITIONS BREAKOUT
WIND DIRECTION BREAKOUT
WEATHER BY HOUR - DECEMBER 8, 2013
[ °C ]   °F
Local TimeTemperatureDewpointHumidityBarometerVisibilityWind DirectionWind SpeedGust SpeedPrecipitationEventsConditions
1:44 AM75.2 °F68.0 °F78 %30.03 in7.0 miCalmPartly Cloudy
3:45 AM75.2 °F69.8 °F83 %30.02 in7.0 miCalmScattered Clouds
4:44 AM75.2 °F69.8 °F83 %30.03 in7.0 miESE (110°)5.8 mphScattered Clouds
5:45 AM78.8 °F69.8 °F74 %30.01 in7.0 miEast (90°)5.8 mphScattered Clouds
6:44 AM78.8 °F69.8 °F74 %30.06 in7.0 miESE (110°)8.1 mphScattered Clouds
7:49 AM80.6 °F69.8 °F70 %30.08 in7.0 miESE (110°)8.1 mphScattered Clouds
8:46 AM82.4 °F71.6 °F70 %30.06 in7.0 miEast (80°)9.2 mphScattered Clouds
9:45 AM82.4 °F71.6 °F70 %30.09 in7.0 miEast (80°)10.4 mphScattered Clouds
10:46 AM82.4 °F71.6 °F70 %30.09 in7.0 miSE (140°)9.2 mphScattered Clouds
11:53 AM82.4 °F71.6 °F70 %30.04 in7.0 miEast (80°)11.5 mphScattered Clouds
12:46 PM82.4 °F71.6 °F70 %30.03 in7.0 miEast (90°)10.4 mphScattered Clouds
1:41 PM82.4 °F69.8 °F66 %30.01 in7.0 miENE (70°)3.5 mphScattered Clouds
2:44 PM82.4 °F71.6 °F70 %29.98 in7.0 miEast (100°)8.1 mphMostly Cloudy
3:45 PM80.6 °F71.6 °F74 %30.00 in7.0 miEast (100°)6.9 mphMostly Cloudy
4:41 PM80.6 °F71.6 °F74 %30.00 in7.0 miEast (90°)4.6 mphClear
5:48 PM77.0 °F71.6 °F83 %29.99 in7.0 miEast (100°)4.6 mphClear
6:43 PM75.2 °F71.6 °F89 %30.02 in7.0 miCalmClear
7:47 PM73.4 °F71.6 °F94 %30.04 in7.0 miCalmClear
8:41 PM71.6 °F69.8 °F94 %30.03 in7.0 miCalmClear
9:47 PM73.4 °F69.8 °F88 %30.06 in7.0 miEast (90°)2.3 mphClear
10:47 PM71.6 °F69.8 °F94 %30.05 in7.0 miCalmClear
11:45 PM69.8 °F68.0 °F94 %30.01 in7.0 miCalmClear
Hourly data recorded from MMUN, located miles away from Leona Vicario, Quintana Roo







STORIES FROM OUR PARTNERS